Flag for Micronesia Weather past 2 weeks in Colonia, Yap, Micronesia

Now
82 °F

Overcast.


Feels Like: 90 °F
Forecast: 78 / 82 °F
Wind: 15 mph from Northwest

Location: Yap Island

Current Time: Mar 31, 2015 at 9:48:20 PM

Latest Report: Mar 31, 2015 at 8:50 PM


Visibility: 12 mi

Pressure: 29.67 "Hg

Humidity: 85%

Dew point: 77 °F

Location of ColoniaLocation

Historic Weather in Colonia — Graph

°F

Colonia temperature yesterday

Maximum temperature yesterday: 88 °F (at 1:52 PM)
Minimum temperature yesterday: 78 °F (at 3:52 AM)
Average temperature yesterday: 82 °F

Past Weeks' High & Low Weather Summary

 TemperatureHumidityPressure
High88 °F (Mar 30, 1:52 PM)96% (Mar 22, 2:50 AM)29.98 "Hg (Mar 22, 2:50 AM)
Low73 °F (Mar 20, 6:55 AM)60% (Mar 26, 12:52 PM)29.66 "Hg (Mar 31, 4:52 PM)
Average81 °F80%29.87 "Hg
* Reported Mar 16 7:55 PM — Mar 31 7:50 PM, Colonia, Weather by CustomWeather, © 2015

Note: Actual official high and low records may vary slightly from our data, if they occured in-between our weather recording intervals... More about our weather records

Advertising

Colonia weather history for previous 24 hours

 ConditionsComfort  
Time TempWeatherWind HumidityBarometerVisibility
7:50 PM
Tue, Mar 31
81 °FSprinkles. Mostly cloudy.12 mph87%29.68 "Hg10 mi
6:51 PM80 °FSprinkles. Mostly cloudy.9 mph91%29.67 "Hg7 mi
4:52 PM80 °FCloudy.13 mph88%29.66 "Hg12 mi
3:50 PM77 °FMostly cloudy.14 mph91%29.67 "Hg12 mi
2:53 PM81 °FSprinkles. Mostly cloudy.16 mph87%29.70 "Hg10 mi
1:50 PM82 °FMostly cloudy.14 mph88%29.72 "Hg12 mi
12:57 PM83 °FMostly cloudy.10 mph86%29.75 "Hg12 mi
11:52 AM86 °FMore clouds than sun.14 mph77%29.78 "Hg12 mi
10:50 AM85 °FMore clouds than sun.12 mph79%29.80 "Hg12 mi
9:50 AM84 °FMore clouds than sun.14 mph81%29.81 "Hg12 mi
8:51 AM82 °FMore clouds than sun.10 mph86%29.82 "Hg12 mi
7:52 AM80 °FMore clouds than sun.13 mph90%29.81 "Hg12 mi
6:55 AM80 °FMostly cloudy.10 mph90%29.79 "Hg12 mi
5:52 AM78 °FSprinkles. Overcast.8 mph90%29.79 "Hg10 mi
4:52 AM80 °FMostly cloudy.9 mph86%29.78 "Hg12 mi
2:52 AM80 °FPartly cloudy.7 mph84%29.80 "Hg12 mi
1:53 AM80 °FPartly cloudy.9 mph85%29.83 "Hg12 mi
12:50 AM80 °FPartly cloudy.8 mph84%29.85 "Hg12 mi
11:51 PM
Mon, Mar 30
80 °FPartly cloudy.8 mph86%29.87 "Hg12 mi
10:50 PM80 °FPartly cloudy.9 mph87%29.88 "Hg12 mi
9:53 PM81 °FPartly cloudy.9 mph83%29.88 "Hg12 mi
Weather by CustomWeather, © 2015

See weather overviewHow to use our weather pages